Regional Weather Roundup
Issued by NWS

Home | Current Version | Previous Version | Text Only | Print | Product List | Glossary On
Versions: 1 2 3 4 5 6 7 8 9 10 11 12 13 14 15 16 17 18 19 20 21 22 23 24 25 26 27 28 29 30 31 32 33 34 35 36 37 38 39 40 41 42 43 44 45 46 47 48 49 50
000
ASUS43 KDMX 260708
RWRIA

WEATHER ROUNDUP FOR IOWA
NATIONAL WEATHER SERVICE DES MOINES IA
200 AM CDT THU MAY 26 2016

NOTE: "FAIR" INDICATES FEW OR NO CLOUDS BELOW 12,000 FEET WITH NO
SIGNIFICANT WEATHER AND/OR OBSTRUCTIONS TO VISIBILITY.

* - THESE STATIONS ARE NOT NWS STATIONS...THUS NOT UNDER NWS
QUALITY CONTROL.  THEY ALSO DO NOT REPORT WEATHER SUCH
AS PRECIPITATION OR FOG.

IAZ001>003-012>014-020>022-031>034-043>046-260800-
   NORTHWEST IOWA

CITY           SKY/WX    TMP DP  RH WIND       PRES   REMARKS
CARROLL *      CLOUDY    68  66  94 CALM      29.82S
CHEROKEE *     CLOUDY    57  57 100 E10       29.83F
DENISON *      CLOUDY    68  66  94 SW5       29.81S
LE MARS *      CLOUDY    63  57  82 SE10G24   29.82R
ORANGE CITY *  LGT RAIN  61  55  82 SE6G18    29.80F
SHELDON *      MOCLDY    64  54  68 SE26      29.77F
SIOUX CITY     TSTM      62  57  83 NW6       29.86R
SPENCER        LGT RAIN  62  53  72 W14       29.85R
STORM LAKE *   HVY RAIN  59  55  88 NW15G24   29.86F
$$

IAZ055>058-069>071-079>083-090>094-260800-
   SOUTHWEST IOWA

CITY           SKY/WX    TMP DP  RH WIND       PRES   REMARKS
ATLANTIC *     CLOUDY    68  66  94 N21G28    29.83S
AUDUBON *      LGT RAIN  64  61  88 SE9       29.84F
CLARINDA *       N/A     64  63  94 MISG      29.84R
COUNCIL BLFS * MOCLDY    64  59  82 NE9G16    29.81F
CRESTON *      CLOUDY    66  63  88 S14G20    29.80F
HARLAN  *      CLOUDY    66  66 100 NE3       29.85F
LAMONI         CLOUDY    70  67  90 S10       29.83F
RED OAK *      RAIN      68  64  88 SW12G20   29.82R
SHENANDOAH *   CLOUDY    70  66  88 CALM      29.83S
$$

IAZ047>049-059>061-072>074-084-260800-
   CENTRAL IOWA

CITY           SKY/WX    TMP DP  RH WIND       PRES   REMARKS
AMES           CLOUDY    68  65  90 SE8       29.81F
ANKENY *       PTCLDY    68  68 100 CALM      29.81F
BOONE *        CLEAR     70  66  88 S5        29.81F
CHARITON *     CLOUDY    72  64  78 S13       29.83F
DES MOINES     CLOUDY    73  64  73 SE6       29.80F THUNDER
GRINNELL*      CLOUDY    70  64  83 SE5       29.85F
KNOXVILLE *    CLOUDY    72  64  78 S10       29.81F
MARSHALLTOWN   CLOUDY    69  63  81 SE8       29.82F
NEWTON *       CLOUDY    70  68  94 SE6       29.83F
PELLA *        CLOUDY    72  64  78 SE5       29.84F
PERRY *        RAIN      70  68  94 CALM      29.82F
$$

IAZ004>006-015-016-023>025-035-036-260800-
   NORTH CENTRAL IOWA

CITY           SKY/WX    TMP DP  RH WIND       PRES   REMARKS
ALGONA *       LGT RAIN  59  55  88 NW18G28   29.86R
CLARION *      CLOUDY    66  64  94 S6        29.82F
ESTHERVILLE    CLOUDY    61  54  77 NW23G41   29.85F
FORT DODGE *   CLOUDY    66  61  82 S5        29.83S
MASON CITY     MOCLDY    65  63  93 S7        29.82F
FOREST CITY *  MOCLDY    63  63 100 SW3       29.83S
WEBSTER CITY * CLEAR     66  64  94 S7        29.81S
IOWA FALLS *     N/A     70  63  78 S5        29.84F
$$

IAZ007>011-017>019-026>030-037>042-050>054-066-260800-
   NORTHEAST IOWA

CITY           SKY/WX    TMP DP  RH WIND       PRES   REMARKS
CEDAR RAPIDS   CLOUDY    69  63  81 S6        29.85F
CHARLES CITY * PTCLDY    68  63  83 S8        29.82F
CLINTON *      MOCLDY    68  62  81 S7        29.89S
DECORAH *      CLEAR     64  61  88 S6        29.83F
DUBUQUE        CLOUDY    64  58  80 SW3       29.89S
MONTICELLO *   CLOUDY    68  61  77 SE3       29.86F
OELWEIN *      PTCLDY    68  61  77 S10       29.86F
WATERLOO       CLOUDY    69  60  73 SE8       29.82F
$$

IAZ064-065-067-068-078-260800-
   EAST CENTRAL IOWA

CITY           SKY/WX    TMP DP  RH WIND       PRES   REMARKS
DAVENPORT      CLOUDY    73  63  70 S10       29.89S
IOWA CITY      CLOUDY    69  63  81 S3        29.88F
MT. PLEASANT * MOCLDY    73  64  73 S8        29.88F
MUSCATINE *    CLOUDY    72  63  73 SE6       29.88S
QUAD CITIES    MOCLDY    75  63  66 S9        29.88S
$$

IAZ062-063-075>077-085>089-095>099-260800-
   SOUTHEAST IOWA

CITY           SKY/WX    TMP DP  RH WIND       PRES   REMARKS
BURLINGTON     MOCLDY    70  65  84 S6        29.90S
FAIRFIELD *      N/A    N/A N/A N/A MISG        N/A
FORT MADISON * PTCLDY    72  64  78 S7        29.91S
KEOKUK *       PTCLDY    73  64  73 S9        29.89F
OSKALOOSA *      N/A     70  63  78 S6        29.85F
OTTUMWA        CLOUDY    72  63  73 S9        29.84F
WASHINGTON *   MOCLDY    72  68  88 S7        29.88F
$$

ABBREVIATIONS USED IN REMARKS
   TC - TEMPERATURES IN CELSIUS
  WCI - WIND CHILL INDEX
   HX - HEAT INDEX
  VSB - VISIBILITY
$$





USA.gov is the U.S. government's official web portal to all federal, state and local government web resources and services.